When you browse on this site, cookies collect data to enhance your experience and personalize the content and advertising you see.
Visit our Privacy Policy to learn more. By continuing to use the site, you agree to this use of cookies and data.
  • en Suisse
  • Liste des pays
  • À 7 jours
  • Température de l'eau
  • Carte satellitaire
  • Carte météo
  • Widgets météo
  • user-avatar
    Se connecter

    Météo par heure à Maun

    Ce jour, 24 Janvier, Jeudi

    Heure Température Précipitation Vent Pression Humidité
    00:00 +27°C° 0 mm 1 m/s 679 mmHg 30%
    01:00 +27°C° 0 mm 1 m/s 679 mmHg 32%
    02:00 +26°C° 0 mm 1 m/s 678 mmHg 35%
    03:00 +26°C° 0 mm 1 m/s 678 mmHg 36%
    04:00 +25°C° 0 mm 1 m/s 678 mmHg 37%
    05:00 +25°C° 0 mm 1 m/s 678 mmHg 38%
    06:00 +26°C° 0 mm 1 m/s 679 mmHg 37%
    07:00 +28°C° 0 mm 1 m/s 679 mmHg 36%
    08:00 +30°C° 0 mm 2 m/s 680 mmHg 34%
    09:00 +34°C° 0 mm 2 m/s 681 mmHg 28%
    10:00 +35°C° 0 mm 1 m/s 681 mmHg 23%
    11:00 +39°C° 0 mm 1 m/s 681 mmHg 17%
    12:00 +40°C° 0 mm 2 m/s 681 mmHg 15%
    13:00 +42°C° 0 mm 3 m/s 680 mmHg 13%
    14:00 +43°C° 0 mm 3 m/s 680 mmHg 11%
    15:00 +43°C° 0 mm 3 m/s 679 mmHg 11%
    16:00 +43°C° 0 mm 3 m/s 679 mmHg 11%
    17:00 +43°C° 0 mm 3 m/s 678 mmHg 10%
    18:00 +39°C° 0 mm 3 m/s 678 mmHg 13%
    19:00 +36°C° 0 mm 2 m/s 678 mmHg 16%
    20:00 +34°C° 0 mm 2 m/s 677 mmHg 19%
    21:00 +32°C° 0 mm 2 m/s 678 mmHg 20%
    22:00 +32°C° 0 mm 2 m/s 679 mmHg 21%
    23:00 +31°C° 0 mm 3 m/s 679 mmHg 22%

    Demain, 25 Janvier, Vendredi

    Heure Température Précipitation Vent Pression Humidité
    00:00 +31°C° 0 mm 3 m/s 679 mmHg 23%
    01:00 +31°C° 0 mm 3 m/s 679 mmHg 23%
    02:00 +31°C° 0 mm 3 m/s 679 mmHg 24%
    03:00 +30°C° 0 mm 3 m/s 679 mmHg 30%
    04:00 +29°C° 0 mm 3 m/s 679 mmHg 35%
    05:00 +28°C° 0 mm 2 m/s 679 mmHg 40%
    06:00 +28°C° 0 mm 3 m/s 679 mmHg 42%
    07:00 +29°C° 0 mm 3 m/s 680 mmHg 43%
    08:00 +30°C° 0 mm 3 m/s 681 mmHg 44%
    09:00 +34°C° 0 mm 3 m/s 681 mmHg 40%
    10:00 +36°C° 0 mm 3 m/s 681 mmHg 35%
    11:00 +38°C° 0 mm 3 m/s 682 mmHg 30%
    12:00 +38°C° 0 mm 3 m/s 681 mmHg 28%
    13:00 +39°C° 0 mm 2 m/s 681 mmHg 27%
    14:00 +39°C° 0 mm 2 m/s 680 mmHg 25%
    15:00 +39°C° 0 mm 2 m/s 680 mmHg 25%
    16:00 +39°C° 0 mm 2 m/s 679 mmHg 26%
    17:00 +39°C° 0 mm 1 m/s 679 mmHg 26%
    18:00 +36°C° 0 mm 1 m/s 679 mmHg 28%
    19:00 +34°C° 0 mm 1 m/s 679 mmHg 31%
    20:00 +33°C° 0 mm 1 m/s 679 mmHg 34%
    21:00 +31°C° 0.5 mm 1 m/s 679 mmHg 40%
    22:00 +29°C° 0.5 mm 2 m/s 679 mmHg 47%
    23:00 +28°C° 0.5 mm 2 m/s 680 mmHg 53%

    Après-demain, 26 Janvier, Samedi

    Heure Température Précipitation Vent Pression Humidité
    00:00 +28°C° 0.4 mm 2 m/s 679 mmHg 56%
    01:00 +28°C° 0.4 mm 1 m/s 679 mmHg 59%
    02:00 +27°C° 0.4 mm 1 m/s 679 mmHg 62%
    03:00 +27°C° 0 mm 1 m/s 679 mmHg 63%
    04:00 +27°C° 0 mm 1 m/s 679 mmHg 64%
    05:00 +26°C° 0 mm 2 m/s 679 mmHg 65%
    06:00 +27°C° 0 mm 2 m/s 680 mmHg 62%
    07:00 +28°C° 0 mm 2 m/s 680 mmHg 59%
    08:00 +29°C° 0 mm 2 m/s 681 mmHg 55%
    09:00 +31°C° 0 mm 2 m/s 681 mmHg 48%
    10:00 +34°C° 0 mm 2 m/s 682 mmHg 41%
    11:00 +37°C° 0 mm 3 m/s 683 mmHg 34%
    12:00 +38°C° 0 mm 2 m/s 682 mmHg 31%
    13:00 +39°C° 0 mm 1 m/s 682 mmHg 27%
    14:00 +41°C° 0 mm 1 m/s 681 mmHg 24%
    15:00 +40°C° 0 mm 1 m/s 680 mmHg 25%
    16:00 +39°C° 0 mm 1 m/s 680 mmHg 27%
    17:00 +37°C° 0 mm 1 m/s 679 mmHg 28%
    18:00 +36°C° 0 mm 1 m/s 679 mmHg 31%
    19:00 +34°C° 0 mm 1 m/s 679 mmHg 34%
    20:00 +32°C° 0 mm 1 m/s 679 mmHg 37%
    21:00 +31°C° 0.4 mm 1 m/s 679 mmHg 42%
    22:00 +30°C° 0.4 mm 1 m/s 679 mmHg 48%
    23:00 +28°C° 0.4 mm 1 m/s 679 mmHg 53%

    27 Janvier, Dimanche

    Heure Température Précipitation Vent Pression Humidité
    00:00 +28°C° 0 mm 1 m/s 679 mmHg 53%
    01:00 +28°C° 0 mm 1 m/s 679 mmHg 53%
    02:00 +28°C° 0 mm 2 m/s 679 mmHg 53%
    03:00 +27°C° 0.9 mm 2 m/s 679 mmHg 59%
    04:00 +26°C° 0.9 mm 3 m/s 679 mmHg 65%
    05:00 +25°C° 0.9 mm 3 m/s 679 mmHg 71%
    06:00 +25°C° 0.9 mm 3 m/s 680 mmHg 72%
    07:00 +25°C° 0.9 mm 3 m/s 680 mmHg 74%
    08:00 +25°C° 0.9 mm 3 m/s 681 mmHg 76%
    09:00 +26°C° 0.2 mm 2 m/s 681 mmHg 71%
    10:00 +27°C° 0.2 mm 2 m/s 682 mmHg 67%
    11:00 +28°C° 0.2 mm 2 m/s 682 mmHg 63%
    12:00 +30°C° 0 mm 2 m/s 681 mmHg 54%
    13:00 +32°C° 0 mm 2 m/s 681 mmHg 45%
    14:00 +35°C° 0 mm 2 m/s 681 mmHg 35%
    15:00 +35°C° 0 mm 3 m/s 680 mmHg 35%
    16:00 +35°C° 0 mm 3 m/s 679 mmHg 34%
    17:00 +35°C° 0 mm 3 m/s 679 mmHg 33%
    18:00 +33°C° 0 mm 3 m/s 679 mmHg 39%
    19:00 +30°C° 0 mm 2 m/s 678 mmHg 45%
    20:00 +28°C° 0 mm 2 m/s 678 mmHg 50%
    21:00 +27°C° 0 mm 2 m/s 679 mmHg 52%
    22:00 +27°C° 0 mm 3 m/s 679 mmHg 54%
    23:00 +26°C° 0 mm 3 m/s 680 mmHg 57%

    28 Janvier, Lundi

    Heure Température Précipitation Vent Pression Humidité
    00:00 +26°C° 0 mm 3 m/s 680 mmHg 61%
    01:00 +25°C° 0 mm 3 m/s 679 mmHg 65%
    02:00 +24°C° 0 mm 2 m/s 679 mmHg 69%
    03:00 +24°C° 0 mm 2 m/s 679 mmHg 72%
    04:00 +24°C° 0 mm 2 m/s 679 mmHg 75%
    05:00 +23°C° 0 mm 2 m/s 679 mmHg 78%
    06:00 +24°C° 0.2 mm 2 m/s 680 mmHg 76%
    07:00 +25°C° 0.2 mm 2 m/s 681 mmHg 74%
    08:00 +26°C° 0.2 mm 2 m/s 681 mmHg 72%
    09:00 +28°C° 0.2 mm 3 m/s 682 mmHg 62%
    10:00 +30°C° 0.2 mm 3 m/s 682 mmHg 52%
    11:00 +34°C° 0.2 mm 4 m/s 682 mmHg 42%
    12:00 +35°C° 0 mm 3 m/s 682 mmHg 39%
    13:00 +35°C° 0 mm 3 m/s 681 mmHg 35%
    14:00 +36°C° 0 mm 3 m/s 680 mmHg 32%
    15:00 +36°C° 0 mm 2 m/s 680 mmHg 33%
    16:00 +36°C° 0 mm 2 m/s 680 mmHg 33%
    17:00 +36°C° 0 mm 2 m/s 679 mmHg 33%
    18:00 +34°C° 0 mm 2 m/s 679 mmHg 37%
    19:00 +32°C° 0 mm 1 m/s 679 mmHg 41%
    20:00 +30°C° 0 mm 1 m/s 679 mmHg 45%
    21:00 +29°C° 0 mm 2 m/s 679 mmHg 49%
    22:00 +28°C° 0 mm 2 m/s 679 mmHg 54%
    23:00 +27°C° 0 mm 3 m/s 679 mmHg 59%

    29 Janvier, Mardi

    Heure Température Précipitation Vent Pression Humidité
    00:00 +26°C° 0 mm 2 m/s 679 mmHg 61%
    01:00 +26°C° 0 mm 2 m/s 679 mmHg 63%
    02:00 +26°C° 0 mm 2 m/s 679 mmHg 65%
    03:00 +25°C° 0.7 mm 2 m/s 679 mmHg 72%
    04:00 +24°C° 0.7 mm 1 m/s 679 mmHg 79%
    05:00 +23°C° 0.7 mm 1 m/s 679 mmHg 85%
    06:00 +24°C° 0.2 mm 1 m/s 680 mmHg 82%
    07:00 +25°C° 0.2 mm 2 m/s 681 mmHg 78%
    08:00 +26°C° 0.2 mm 2 m/s 682 mmHg 74%
    09:00 +28°C° 0.9 mm 2 m/s 682 mmHg 65%
    10:00 +30°C° 0.9 mm 2 m/s 682 mmHg 56%
    11:00 +32°C° 0.9 mm 2 m/s 682 mmHg 47%
    12:00 +34°C° 0 mm 2 m/s 682 mmHg 44%
    13:00 +34°C° 0 mm 1 m/s 681 mmHg 40%
    14:00 +35°C° 0 mm 1 m/s 681 mmHg 37%
    15:00 +34°C° 0 mm 1 m/s 680 mmHg 37%
    16:00 +34°C° 0 mm 1 m/s 680 mmHg 37%
    17:00 +35°C° 0 mm 2 m/s 680 mmHg 37%
    18:00 +32°C° 0.1 mm 2 m/s 680 mmHg 43%
    19:00 +30°C° 0.1 mm 2 m/s 680 mmHg 50%
    20:00 +28°C° 0.1 mm 2 m/s 680 mmHg 56%
    21:00 +28°C° 0 mm 2 m/s 680 mmHg 58%
    22:00 +27°C° 0 mm 2 m/s 680 mmHg 59%
    23:00 +27°C° 0 mm 1 m/s 680 mmHg 60%
    Voir plus